CZ-6A DEB, 61131

Orbit data source: Space-Track

CZ-6A DEB, 61131 is space debris in LEO originally from a launch on Tue, 06 Aug 2024 UTC launched from the Taiyaun Space Center, China (TSC). Debris objects in space refer to the collection of defunct objects orbiting the Earth. Examples of debris include non-operational satellites, rocket bodies, and fragments generated from explosions, collisions, or faulty payload assembly.

Loading next visibility...
Identifier
61131, 2024-140PZ
Orbit
LEO
Country
Flag of CNCN / PRC
Related business
Manufacturer
SAST
Mission
Spacecraft
Bus & Motor
Unknown
Mass
Unknown
Launch date (UTC)
2024-08-06 (2 years ago)
Launch vehicle
Unknown
Launch site
Taiyaun Space Center, China (TSC)
Object type
Payload
Rocket body
Debris
Shape & HBR
Unknown shape, 0.1 m
Radar Cross Section
Medium (>0.1 m² and <1 m²)

Expand to show TLE details & history
Last TLE update: 16 hours ago

TLE from 16 hours ago
0 CZ-6A DEB
1 61131U 24140PZ  26171.29513605  .00006176  00000-0  15738-2 0  9997
2 61131  89.1903 288.2064 0043933  13.0343 347.1987 14.49942646 96081
Epoch: 2026-06-20T07:04Z
TLE epoch observation values (Epoch: 2026-06-20T07:04:59.754Z)
Latitude
-0.00012°
Longitude
-86.55439°
Altitude
698.498 km
Speed
7.523 km/s
True Right ascension
19h 12m 49s
True Declination
0° 00' 00"
Sunlit
Object was in full shadow at epoch
Visualization orbit readout
Latitude
Unknown
Longitude
Unknown
Altitude
Unknown
Speed
Unknown
Apparent Right ascension
Unknown
Apparent Declination
Unknown
Sunlit
N/A
Visualization observer readout
Local Sidereal Time
10:20:29
Azimuth
Unknown
Elevation
Unknown
Doppler factor
Unknown
Orbital elements
Apogee altitude
753.939 km
Perigee altitude
691.547 km
Semi-major axis
7,100.88 km
Eccentricity
0.00439
Inclination
89.1903°
RAAN
288.2064°
Arg. of periapsis
13.0343°
True anomaly
347.08655°
Mean anomaly
347.1987°
Eccentric anomaly
347.14269°
Mean motion
3.62723 °/min
Orbital period
99.25 mins
BSTAR
0.0015738
Loading maneuver chart data...
Computing Atmospheric mass density...
Loading historical data...
Loading historical data...
Loading historical data...
Loading historical data...
Loading historical data...
Loading historical data...
Loading historical data...

Documentation

Showing up to 5 results
|